Weather in Boise

United States     43°37′09″N   116°12′52″W
temp.,
°C
wind,
m/s
gust,
m/s
humid.,
%
clouds,
%
prec.,
mm/h
press.,
hPa
HPBL,
m
25 may, wed
wed2500:00+14ese2237100 0.0 101421
03:00+13e22425 0.0 101422
06:00+12e22459 0.0 101515
09:00+18ese22337 0.0 1015240
12:00+22wnw22296 0.0 10131104
15:00+25nw35285 0.0 10111770
18:00+26n3327100 0.0 10091432
21:00+22ne2232100 0.0 100926
26 may, thu
thu2600:00+18ese2237100 0.0 101015
03:00+17ene324062 0.0 101020
06:00+15e224298 0.0 101016
09:00+20sse2334100 0.0 1010256
12:00+25sse4525100 0.0 10081038
15:00+29ssw2420100 0.0 10041448
18:00+29nnw3222100 0.0 10011006
21:00+20w2251100 0.1 100426
27 may, fri
fri2700:00+20sse4949100 0.1 1007297
03:00+18se1161100 0.3 100934
06:00+15nw5105726 0.3 1011322
09:00+17wnw565242 0.0 1013711
12:00+20wnw4539100 0.0 10111427
15:00+22nnw5733100 0.0 10092548
18:00+16nw4563100 2.0 1010536
21:00+14nnw3476100 0.7 1010245
28 may, sat
sat2800:00+13w1175100 0.7 100991
03:00+12wnw3588100 2.3 1008359
06:00+11e2286100 6.1 1007203
09:00+11e3383100 1.8 1006247
12:00+12se2479100 3.0 1005343
15:00+12nw5677100 1.6 1004695
18:00+15wnw6764100 2.8 10011248
21:00+9ene3479100 10.3 1003149
29 may, sun
sun2900:00+8w713675 10.4 1005606
03:00+6wnw51077100 0.0 1007675
06:00+6wnw7974100 0.3 1008819
09:00+6wnw7971100 0.3 10091096
12:00+8nw577091 0.8 10081103
15:00+11wnw785776 0.5 10061594
18:00+12nw784882 0.8 10051560
21:00+10nw7125896 0.1 1005578